sat.trackr.live / text

‹ back to catalog

STARLINK-2498

NORAD 48326 · 2021-036BC

PAYLOAD ACTIVE UNKNOWN

§ Identity

Operator
Country
US
Launch date
2021-04-29
Launch site
AFETR
Launch vehicle
Mass (kg)
RCS (m²)

Purposes: comms

External: N2YO · Heavens-Above · Gunter

§ Orbital elements

Epoch: 2026-05-25T03:36:14.971392Z

Period
94.01 min
Inclination
53.1604°
Eccentricity
0.0001742
Mean motion
15.31715668 rev/d
Perigee alt
469.5 km
Apogee alt
471.9 km
Semi-major
6,848.8 km
B*
7.0393e-4
RAAN
105.4809°
Arg perigee
81.9405°
Mean anomaly
278.1794°
Rev number
27,975

§ Raw data

STARLINK-24981 48326U 21036BC  26145.15017328  .00021553  00000+0  70393-3 0  99902 48326  53.1604 105.4809 0001742  81.9405 278.1794 15.31715668279753

JSON: /api/v1/satellites/48326 · /tle

For live sub-satellite position, see the globe view (requires WebGL).

§ Visibility from observer

Set your observer location to see the next 7 days of passes ≥ 10°. The values pass through the URL so the page stays shareable.

No JS? Fill the form by hand. The geolocation button needs JavaScript.